{"data":{"norad_id":61779,"epoch":"2026-05-25T04:36:47.242944Z","epoch_age_seconds":65236,"freshness":"FRESH","line1":"1 61779U 24199AW  26145.19221346  .00009476  00000+0  26709-3 0  9993","line2":"2 61779  97.3065  14.6992 0013809  36.3729 323.8451 15.36544933133583","mean_motion":15.36544933,"eccentricity":0.0013809,"inclination_deg":97.3065,"raan_deg":14.6992,"arg_perigee_deg":36.3729,"mean_anomaly_deg":323.8451,"bstar":0.00026709,"rev_number":13358,"period_min":93.716751724826,"perigee_km":446.89774161629,"apogee_km":465.77318766914,"semimajor_km":6834.4724646427,"source":"CELESTRAK","updated_at":"2026-05-25T13:38:23.295690Z"}}